Вернуться в каталог

FENGYUN 1C DEB

LostPO
NORAD 41002·DEBRIS·🇨🇳 China

Запущен May 10, 1999 с Taiyuan Satellite Launch Center

Loading…

Ближайшие Пролёты (ближайшие 24 часа)

TLE

УстаревшееSource: Space-Track

Эпоха: May 5, 2023, 07:48 UTC

1 41002U 99025EXG 23125.32546340  .00001899  00000-0  14134-2 0  9994
2 41002  98.1517 159.3002 0139553 282.7691  75.7907 13.91510544617003

Отслеживайте FENGYUN 1C DEB в реальном времени с AllMySat

Download on the App Store